• în Republica Moldova
  • Lista ţărilor
  • Pe 7 zile
  • Temperatura apei
  • Hartă satelitară
  • Meteo pe hartă
  • Widget-uri
  • user-avatar
    Intrare

    Meteo pe oră la Prutz

    Astăzi, 25 Iulie, Marţi

    Timp Temperatura Precipitaţii Vânt Presiune Umiditate
    00:00 +6°C° 0,1 mm 2 m/s 629 mmHg 94%
    01:00 +6°C° 0 mm 2 m/s 629 mmHg 92%
    02:00 +6°C° 0,7 mm 2 m/s 629 mmHg 92%
    03:00 +6°C° 0,7 mm 2 m/s 629 mmHg 92%
    04:00 +6°C° 0,7 mm 2 m/s 629 mmHg 92%
    05:00 +7°C° 0,8 mm 2 m/s 629 mmHg 91%
    06:00 +7°C° 0,8 mm 2 m/s 629 mmHg 91%
    07:00 +8°C° 0 mm 2 m/s 629 mmHg 90%
    08:00 +8°C° 0,7 mm 2 m/s 629 mmHg 87%
    09:00 +9°C° 0,7 mm 2 m/s 629 mmHg 85%
    10:00 +9°C° 0,7 mm 2 m/s 629 mmHg 82%
    11:00 +10°C° 0,5 mm 2 m/s 629 mmHg 79%
    12:00 +12°C° 0,5 mm 2 m/s 630 mmHg 76%
    13:00 +11°C° 0 mm 3 m/s 630 mmHg 74%
    14:00 +11°C° 0,5 mm 3 m/s 630 mmHg 73%
    15:00 +11°C° 0,5 mm 3 m/s 630 mmHg 72%
    16:00 +11°C° 0,5 mm 3 m/s 630 mmHg 72%
    17:00 +10°C° 0,4 mm 2 m/s 629 mmHg 76%
    18:00 +9°C° 0,4 mm 2 m/s 629 mmHg 81%
    19:00 +9°C° 0,4 mm 2 m/s 629 mmHg 85%
    20:00 +8°C° 0,5 mm 2 m/s 629 mmHg 87%
    21:00 +7°C° 0,5 mm 2 m/s 629 mmHg 90%
    22:00 +7°C° 0,5 mm 2 m/s 629 mmHg 92%
    23:00 +7°C° 0,5 mm 2 m/s 629 mmHg 92%

    Mâine, 26 Iulie, Miercuri

    Timp Temperatura Precipitaţii Vânt Presiune Umiditate
    00:00 +6°C° 0,5 mm 2 m/s 628 mmHg 92%
    01:00 +6°C° 0,5 mm 2 m/s 628 mmHg 93%
    02:00 +6°C° 0,2 mm 2 m/s 628 mmHg 92%
    03:00 +6°C° 0,2 mm 2 m/s 628 mmHg 92%
    04:00 +6°C° 0,2 mm 2 m/s 628 mmHg 92%
    05:00 +6°C° 1 mm 2 m/s 628 mmHg 91%
    06:00 +6°C° 1 mm 2 m/s 628 mmHg 90%
    07:00 +7°C° 1 mm 2 m/s 628 mmHg 89%
    08:00 +7°C° 1 mm 2 m/s 629 mmHg 87%
    09:00 +8°C° 1 mm 2 m/s 629 mmHg 85%
    10:00 +9°C° 1 mm 2 m/s 630 mmHg 83%
    11:00 +9°C° 0,5 mm 2 m/s 630 mmHg 82%
    12:00 +10°C° 0,5 mm 2 m/s 630 mmHg 81%
    13:00 +10°C° 0,5 mm 2 m/s 631 mmHg 79%
    14:00 +10°C° 0,5 mm 2 m/s 631 mmHg 79%
    15:00 +10°C° 0,5 mm 2 m/s 631 mmHg 79%
    16:00 +10°C° 0,5 mm 2 m/s 631 mmHg 79%
    17:00 +10°C° 0,7 mm 2 m/s 631 mmHg 83%
    18:00 +9°C° 0,7 mm 2 m/s 631 mmHg 86%
    19:00 +8°C° 0,7 mm 2 m/s 631 mmHg 90%
    20:00 +8°C° 0,4 mm 2 m/s 631 mmHg 91%
    21:00 +7°C° 0,4 mm 2 m/s 631 mmHg 93%
    22:00 +7°C° 0,4 mm 2 m/s 632 mmHg 94%
    23:00 +7°C° 0 mm 2 m/s 631 mmHg 94%

    Poimâine, 27 Iulie, Joi

    Timp Temperatura Precipitaţii Vânt Presiune Umiditate
    00:00 +6°C° 0 mm 2 m/s 631 mmHg 94%
    01:00 +6°C° 0 mm 2 m/s 631 mmHg 94%
    02:00 +5°C° 0 mm 2 m/s 631 mmHg 93%
    03:00 +5°C° 0 mm 2 m/s 631 mmHg 92%
    04:00 +5°C° 0 mm 2 m/s 631 mmHg 91%
    05:00 +7°C° 0 mm 1 m/s 631 mmHg 85%
    06:00 +9°C° 0 mm 1 m/s 632 mmHg 79%
    07:00 +10°C° 0 mm 1 m/s 632 mmHg 73%
    08:00 +11°C° 0,1 mm 1 m/s 633 mmHg 70%
    09:00 +12°C° 0,1 mm 1 m/s 633 mmHg 66%
    10:00 +13°C° 0,1 mm 1 m/s 633 mmHg 62%
    11:00 +14°C° 0,2 mm 1 m/s 633 mmHg 64%
    12:00 +14°C° 0,2 mm 1 m/s 633 mmHg 65%
    13:00 +15°C° 0,2 mm 1 m/s 633 mmHg 67%
    14:00 +15°C° 0,5 mm 1 m/s 633 mmHg 69%
    15:00 +15°C° 0,5 mm 1 m/s 633 mmHg 72%
    16:00 +15°C° 0,5 mm 2 m/s 633 mmHg 74%
    17:00 +15°C° 0,1 mm 1 m/s 633 mmHg 78%
    18:00 +14°C° 0,1 mm 1 m/s 633 mmHg 82%
    19:00 +14°C° 0,1 mm 1 m/s 633 mmHg 86%
    20:00 +13°C° 0,1 mm 1 m/s 633 mmHg 88%
    21:00 +12°C° 0,1 mm 1 m/s 633 mmHg 91%
    22:00 +10°C° 0,1 mm 1 m/s 633 mmHg 93%
    23:00 +10°C° 0,1 mm 1 m/s 633 mmHg 93%

    28 Iulie, Vineri

    Timp Temperatura Precipitaţii Vânt Presiune Umiditate
    00:00 +10°C° 0,1 mm 1 m/s 633 mmHg 93%
    01:00 +10°C° 0,1 mm 1 m/s 633 mmHg 94%
    02:00 +10°C° 0,1 mm 1 m/s 633 mmHg 94%
    03:00 +10°C° 0,1 mm 1 m/s 633 mmHg 94%
    04:00 +10°C° 0,1 mm 1 m/s 633 mmHg 94%
    05:00 +11°C° 0,2 mm 1 m/s 633 mmHg 91%
    06:00 +12°C° 0,2 mm 1 m/s 634 mmHg 89%
    07:00 +13°C° 0,2 mm 1 m/s 634 mmHg 86%
    08:00 +14°C° 0,2 mm 1 m/s 635 mmHg 83%
    09:00 +16°C° 0,2 mm 1 m/s 635 mmHg 79%
    10:00 +18°C° 0,2 mm 1 m/s 636 mmHg 75%
    11:00 +18°C° 0,1 mm 2 m/s 636 mmHg 71%
    12:00 +19°C° 0,1 mm 2 m/s 636 mmHg 67%
    13:00 +19°C° 0,1 mm 2 m/s 637 mmHg 63%
    14:00 +19°C° 0,2 mm 2 m/s 637 mmHg 63%
    15:00 +19°C° 0,2 mm 2 m/s 637 mmHg 64%
    16:00 +19°C° 0,2 mm 2 m/s 637 mmHg 65%
    17:00 +18°C° 0,1 mm 2 m/s 637 mmHg 71%
    18:00 +17°C° 0,1 mm 2 m/s 637 mmHg 77%
    19:00 +16°C° 0,1 mm 1 m/s 637 mmHg 83%
    20:00 +15°C° 0 mm 1 m/s 637 mmHg 87%
    21:00 +13°C° 0 mm 1 m/s 637 mmHg 91%
    22:00 +12°C° 0 mm 1 m/s 636 mmHg 95%
    23:00 +12°C° 0 mm 1 m/s 636 mmHg 95%

    29 Iulie, Sâmbătă

    Timp Temperatura Precipitaţii Vânt Presiune Umiditate
    00:00 +11°C° 0 mm 1 m/s 636 mmHg 94%
    01:00 +11°C° 0 mm 1 m/s 636 mmHg 93%
    02:00 +11°C° 0 mm 1 m/s 636 mmHg 93%
    03:00 +11°C° 0 mm 1 m/s 636 mmHg 92%
    04:00 +11°C° 0 mm 1 m/s 636 mmHg 92%
    05:00 +13°C° 0 mm 1 m/s 637 mmHg 89%
    06:00 +14°C° 0 mm 1 m/s 637 mmHg 85%
    07:00 +16°C° 0 mm 1 m/s 638 mmHg 82%
    08:00 +18°C° 0,1 mm 1 m/s 638 mmHg 77%
    09:00 +19°C° 0,1 mm 1 m/s 639 mmHg 71%
    10:00 +21°C° 0,1 mm 1 m/s 639 mmHg 66%
    11:00 +21°C° 0,7 mm 1 m/s 639 mmHg 67%
    12:00 +21°C° 0,7 mm 1 m/s 639 mmHg 69%
    13:00 +21°C° 0,7 mm 1 m/s 639 mmHg 70%
    14:00 +20°C° 1,5 mm 1 m/s 639 mmHg 75%
    15:00 +20°C° 1,5 mm 1 m/s 639 mmHg 79%
    16:00 +19°C° 1,5 mm 1 m/s 638 mmHg 84%
    17:00 +18°C° 2,2 mm 1 m/s 638 mmHg 87%
    18:00 +18°C° 2,2 mm 1 m/s 638 mmHg 90%
    19:00 +16°C° 2,2 mm 1 m/s 638 mmHg 93%
    20:00 +15°C° 1 mm 1 m/s 638 mmHg 94%
    21:00 +14°C° 1 mm 1 m/s 638 mmHg 95%
    22:00 +14°C° 1 mm 1 m/s 638 mmHg 96%
    23:00 +13°C° 0,6 mm 1 m/s 638 mmHg 96%

    30 Iulie, Duminică

    Timp Temperatura Precipitaţii Vânt Presiune Umiditate
    00:00 +13°C° 0,6 mm 1 m/s 637 mmHg 95%
    01:00 +13°C° 0,6 mm 1 m/s 637 mmHg 95%
    02:00 +13°C° 0,5 mm 1 m/s 637 mmHg 94%
    03:00 +13°C° 0,5 mm 1 m/s 637 mmHg 94%
    04:00 +13°C° 0,5 mm 1 m/s 636 mmHg 93%
    05:00 +14°C° 0,1 mm 1 m/s 637 mmHg 90%
    06:00 +15°C° 0,1 mm 1 m/s 637 mmHg 88%
    07:00 +16°C° 0,1 mm 2 m/s 638 mmHg 86%
    08:00 +19°C° 0,3 mm 1 m/s 638 mmHg 74%
    09:00 +21°C° 0,3 mm 1 m/s 639 mmHg 63%
    10:00 +24°C° 0,3 mm 1 m/s 639 mmHg 52%
    11:00 +24°C° 0,7 mm 1 m/s 639 mmHg 51%
    12:00 +24°C° 0,7 mm 1 m/s 639 mmHg 51%
    13:00 +24°C° 0,7 mm 1 m/s 639 mmHg 50%
    14:00 +24°C° 0,8 mm 1 m/s 639 mmHg 52%
    15:00 +24°C° 0,8 mm 1 m/s 639 mmHg 53%
    16:00 +24°C° 0,8 mm 1 m/s 639 mmHg 55%
    17:00 +22°C° 0,8 mm 1 m/s 638 mmHg 64%
    18:00 +21°C° 0,8 mm 1 m/s 638 mmHg 73%
    19:00 +20°C° 0,8 mm 1 m/s 638 mmHg 81%
    20:00 +18°C° 0,2 mm 1 m/s 638 mmHg 83%
    21:00 +16°C° 0,2 mm 1 m/s 637 mmHg 86%
    22:00 +14°C° 0,2 mm 1 m/s 637 mmHg 88%
    23:00 +14°C° 0 mm 2 m/s 637 mmHg 88%
    Arată mai mult